Time,TemperatureF,DewpointF,PressureIn,WindDirection,WindDirectionDegrees,WindSpeedMPH,WindSpeedGustMPH,Humidity,HourlyPrecipIn,Conditions,Clouds,dailyrainin,SoftwareType,DateUTC
2013-05-12 00:01:00,56.0,54.6,29.76,NW,309,9.0,14.0,95,0.00,,,0.00,Wunderground v.1.15,2013-05-12 04:01:00,
2013-05-12 00:02:00,55.9,54.5,29.76,NW,317,10.0,14.0,95,0.00,,,0.00,Wunderground v.1.15,2013-05-12 04:02:00,
2013-05-12 00:06:00,55.8,54.4,29.76,NNW,331,10.0,14.0,95,0.00,,,0.00,Wunderground v.1.15,2013-05-12 04:06:00,
2013-05-12 00:08:00,55.8,54.4,29.76,NW,318,10.0,14.0,95,0.00,,,0.00,Wunderground v.1.15,2013-05-12 04:08:00,
2013-05-12 00:13:00,55.7,54.3,29.76,NW,313,10.0,14.0,95,0.00,,,0.00,Wunderground v.1.15,2013-05-12 04:13:00,
2013-05-12 00:18:00,55.5,54.1,29.76,NW,304,12.0,16.0,95,0.00,,,0.00,Wunderground v.1.15,2013-05-12 04:18:00,
2013-05-12 00:22:00,55.4,53.7,29.76,NW,315,12.0,13.0,94,0.00,,,0.00,Wunderground v.1.15,2013-05-12 04:22:00,
2013-05-12 00:27:00,55.1,53.7,29.76,NW,319,11.0,16.0,95,0.00,,,0.00,Wunderground v.1.15,2013-05-12 04:27:00,
2013-05-12 00:32:00,55.0,53.3,29.76,NW,323,11.0,11.0,94,0.00,,,0.00,Wunderground v.1.15,2013-05-12 04:32:00,
2013-05-12 00:37:00,54.8,53.1,29.76,NW,314,9.0,12.0,94,0.00,,,0.00,Wunderground v.1.15,2013-05-12 04:37:00,
2013-05-12 00:42:00,54.6,52.9,29.75,NW,313,9.0,14.0,94,0.00,,,0.00,Wunderground v.1.15,2013-05-12 04:42:00,
2013-05-12 00:47:00,54.3,52.6,29.75,WNW,302,10.0,18.0,94,0.00,,,0.00,Wunderground v.1.15,2013-05-12 04:47:00,
2013-05-12 00:53:00,54.1,52.4,29.75,NW,306,11.0,15.0,94,0.00,,,0.00,Wunderground v.1.15,2013-05-12 04:53:00,
2013-05-12 00:58:00,53.9,52.2,29.75,WNW,302,12.0,15.0,94,0.00,,,0.00,Wunderground v.1.15,2013-05-12 04:58:00,
2013-05-12 01:03:00,53.7,52.0,29.75,NW,321,11.0,12.0,94,0.00,,,0.00,Wunderground v.1.15,2013-05-12 05:03:00,
2013-05-12 01:08:00,53.5,51.8,29.75,WNW,286,10.0,16.0,94,0.00,,,0.00,Wunderground v.1.15,2013-05-12 05:08:00,
2013-05-12 01:13:00,53.2,51.5,29.75,NW,306,12.0,15.0,94,0.00,,,0.00,Wunderground v.1.15,2013-05-12 05:13:00,
2013-05-12 01:18:00,53.0,51.3,29.75,NW,312,12.0,15.0,94,0.00,,,0.00,Wunderground v.1.15,2013-05-12 05:18:00,
2013-05-12 01:23:00,52.8,51.1,29.75,WNW,293,10.0,12.0,94,0.00,,,0.00,Wunderground v.1.15,2013-05-12 05:23:00,
2013-05-12 01:28:00,52.6,50.9,29.75,NW,324,9.0,12.0,94,0.00,,,0.00,Wunderground v.1.15,2013-05-12 05:28:00,
2013-05-12 01:34:00,52.4,50.7,29.75,NW,319,8.0,14.0,94,0.00,,,0.00,Wunderground v.1.15,2013-05-12 05:34:00,
2013-05-12 01:39:00,52.3,50.6,29.75,NW,322,11.0,16.0,94,0.00,,,0.00,Wunderground v.1.15,2013-05-12 05:39:00,
2013-05-12 01:44:00,52.1,50.4,29.75,WNW,302,14.0,18.0,94,0.00,,,0.00,Wunderground v.1.15,2013-05-12 05:44:00,
2013-05-12 01:49:00,51.9,50.5,29.75,WNW,290,14.0,18.0,95,0.00,,,0.00,Wunderground v.1.15,2013-05-12 05:49:00,
2013-05-12 01:54:00,51.8,50.1,29.75,NW,317,13.0,14.0,94,0.00,,,0.00,Wunderground v.1.15,2013-05-12 05:54:00,
2013-05-12 01:59:00,51.6,49.9,29.75,NW,308,13.0,18.0,94,0.00,,,0.00,Wunderground v.1.15,2013-05-12 05:59:00,
2013-05-12 02:04:00,51.5,49.8,29.75,North,355,12.0,13.0,94,0.00,,,0.00,Wunderground v.1.15,2013-05-12 06:04:00,
2013-05-12 02:09:00,51.3,49.9,29.75,NW,306,12.0,20.0,95,0.00,,,0.00,Wunderground v.1.15,2013-05-12 06:09:00,
2013-05-12 02:14:00,51.1,49.4,29.75,NW,311,14.0,30.0,94,0.00,,,0.00,Wunderground v.1.15,2013-05-12 06:14:00,
2013-05-12 02:19:00,50.9,49.2,29.75,NW,308,14.0,30.0,94,0.00,,,0.00,Wunderground v.1.15,2013-05-12 06:19:00,
2013-05-12 02:24:00,50.8,49.4,29.75,NW,306,13.0,14.0,95,0.00,,,0.00,Wunderground v.1.15,2013-05-12 06:24:00,
2013-05-12 02:30:00,50.6,49.2,29.75,NW,323,11.0,11.0,95,0.00,,,0.00,Wunderground v.1.15,2013-05-12 06:30:00,
2013-05-12 02:36:00,50.5,49.1,29.75,NW,305,10.0,15.0,95,0.00,,,0.00,Wunderground v.1.15,2013-05-12 06:36:00,
2013-05-12 02:41:00,50.4,48.7,29.75,NW,316,10.0,10.0,94,0.00,,,0.00,Wunderground v.1.15,2013-05-12 06:41:00,
2013-05-12 02:46:00,50.2,48.5,29.75,NW,306,11.0,18.0,94,0.00,,,0.00,Wunderground v.1.15,2013-05-12 06:46:00,
2013-05-12 02:52:00,50.0,48.6,29.75,NW,323,12.0,12.0,95,0.00,,,0.00,Wunderground v.1.15,2013-05-12 06:52:00,
2013-05-12 02:57:00,49.8,48.4,29.75,WNW,297,13.0,14.0,95,0.00,,,0.00,Wunderground v.1.15,2013-05-12 06:57:00,
2013-05-12 03:02:00,49.7,48.0,29.75,WNW,294,14.0,15.0,94,0.00,,,0.00,Wunderground v.1.15,2013-05-12 07:02:00,
2013-05-12 03:07:00,49.6,47.9,29.75,WNW,296,15.0,17.0,94,0.00,,,0.00,Wunderground v.1.15,2013-05-12 07:07:00,
2013-05-12 03:12:00,49.5,48.1,29.74,NW,323,14.0,15.0,95,0.00,,,0.00,Wunderground v.1.15,2013-05-12 07:12:00,
2013-05-12 03:17:00,49.3,47.9,29.74,NW,321,13.0,15.0,95,0.00,,,0.00,Wunderground v.1.15,2013-05-12 07:17:00,
2013-05-12 03:22:00,49.2,47.5,29.74,NW,309,12.0,14.0,94,0.00,,,0.00,Wunderground v.1.15,2013-05-12 07:22:00,
2013-05-12 03:28:00,49.0,47.3,29.74,NW,314,13.0,16.0,94,0.00,,,0.00,Wunderground v.1.15,2013-05-12 07:28:00,
2013-05-12 03:33:00,48.9,47.5,29.74,NW,306,13.0,14.0,95,0.00,,,0.00,Wunderground v.1.15,2013-05-12 07:33:00,
2013-05-12 03:38:00,48.8,47.4,29.74,NNW,331,12.0,15.0,95,0.00,,,0.00,Wunderground v.1.15,2013-05-12 07:38:00,
2013-05-12 03:43:00,48.7,47.3,29.74,NW,308,11.0,14.0,95,0.00,,,0.00,Wunderground v.1.15,2013-05-12 07:43:00,
2013-05-12 03:48:00,48.5,46.9,29.74,NW,306,11.0,14.0,94,0.00,,,0.00,Wunderground v.1.15,2013-05-12 07:48:00,
2013-05-12 03:53:00,48.3,46.7,29.74,WNW,296,12.0,16.0,94,0.00,,,0.00,Wunderground v.1.15,2013-05-12 07:53:00,
2013-05-12 03:59:00,48.1,46.7,29.74,NW,323,11.0,16.0,95,0.00,,,0.00,Wunderground v.1.15,2013-05-12 07:59:00,
2013-05-12 04:05:00,48.0,46.6,29.74,WNW,296,11.0,16.0,95,0.00,,,0.00,Wunderground v.1.15,2013-05-12 08:05:00,
2013-05-12 04:10:00,47.9,46.3,29.74,NW,323,11.0,11.0,94,0.00,,,0.00,Wunderground v.1.15,2013-05-12 08:10:00,
2013-05-12 04:15:00,47.7,46.1,29.74,NW,325,10.0,12.0,94,0.00,,,0.00,Wunderground v.1.15,2013-05-12 08:15:00,
2013-05-12 04:20:00,47.6,46.0,29.74,NW,311,10.0,12.0,94,0.00,,,0.00,Wunderground v.1.15,2013-05-12 08:20:00,
2013-05-12 04:25:00,47.5,45.9,29.74,WNW,297,9.0,12.0,94,0.00,,,0.00,Wunderground v.1.15,2013-05-12 08:25:00,
2013-05-12 04:31:00,47.5,45.9,29.74,NW,321,7.0,8.0,94,0.00,,,0.00,Wunderground v.1.15,2013-05-12 08:31:00,
2013-05-12 04:36:00,47.5,45.9,29.74,WNW,296,8.0,8.0,94,0.00,,,0.00,Wunderground v.1.15,2013-05-12 08:36:00,
2013-05-12 04:41:00,47.5,45.9,29.74,NNW,339,10.0,12.0,94,0.00,,,0.00,Wunderground v.1.15,2013-05-12 08:41:00,
2013-05-12 04:47:00,47.5,45.9,29.74,NNW,329,11.0,16.0,94,0.00,,,0.00,Wunderground v.1.15,2013-05-12 08:47:00,
2013-05-12 04:52:00,47.5,45.9,29.74,NNW,334,13.0,20.0,94,0.00,,,0.00,Wunderground v.1.15,2013-05-12 08:52:00,
2013-05-12 04:57:00,47.5,45.9,29.74,NW,306,15.0,20.0,94,0.00,,,0.00,Wunderground v.1.15,2013-05-12 08:57:00,
2013-05-12 05:02:00,47.5,45.9,29.74,NW,310,14.0,16.0,94,0.00,,,0.00,Wunderground v.1.15,2013-05-12 09:02:00,
2013-05-12 05:08:00,47.4,45.8,29.74,NNW,346,14.0,21.0,94,0.00,,,0.00,Wunderground v.1.15,2013-05-12 09:08:00,
2013-05-12 05:13:00,47.4,45.8,29.75,NW,317,15.0,18.0,94,0.00,,,0.00,Wunderground v.1.15,2013-05-12 09:13:00,
2013-05-12 05:18:00,47.4,45.8,29.75,WNW,300,16.0,22.0,94,0.00,,,0.00,Wunderground v.1.15,2013-05-12 09:18:00,
2013-05-12 05:23:00,47.4,45.8,29.75,NW,322,16.0,18.0,94,0.00,,,0.00,Wunderground v.1.15,2013-05-12 09:23:00,
2013-05-12 05:28:00,47.4,45.8,29.75,NW,306,18.0,21.0,94,0.00,,,0.00,Wunderground v.1.15,2013-05-12 09:28:00,
2013-05-12 05:34:00,47.5,45.9,29.75,NNW,339,19.0,26.0,94,0.00,,,0.00,Wunderground v.1.15,2013-05-12 09:34:00,
2013-05-12 05:39:00,47.4,45.8,29.75,WNW,286,17.0,26.0,94,0.00,,,0.00,Wunderground v.1.15,2013-05-12 09:39:00,
2013-05-12 05:45:00,47.3,45.7,29.75,NW,321,13.0,18.0,94,0.00,,,0.00,Wunderground v.1.15,2013-05-12 09:45:00,
2013-05-12 05:50:00,47.3,45.7,29.75,NW,315,13.0,24.0,94,0.00,,,0.00,Wunderground v.1.15,2013-05-12 09:50:00,
2013-05-12 05:55:00,47.3,45.7,29.75,WNW,294,14.0,24.0,94,0.00,,,0.00,Wunderground v.1.15,2013-05-12 09:55:00,
2013-05-12 06:00:00,47.3,45.7,29.76,NW,319,14.0,15.0,94,0.00,,,0.00,Wunderground v.1.15,2013-05-12 10:00:00,
2013-05-12 06:05:00,47.2,45.6,29.76,NW,311,13.0,18.0,94,0.00,,,0.00,Wunderground v.1.15,2013-05-12 10:05:00,
2013-05-12 06:11:00,47.0,45.4,29.76,NNW,338,13.0,13.0,94,0.00,,,0.00,Wunderground v.1.15,2013-05-12 10:11:00,
2013-05-12 06:16:00,46.9,45.3,29.76,WNW,300,11.0,13.0,94,0.00,,,0.00,Wunderground v.1.15,2013-05-12 10:16:00,
2013-05-12 06:21:00,46.8,45.2,29.76,NW,309,9.0,14.0,94,0.00,,,0.00,Wunderground v.1.15,2013-05-12 10:21:00,
2013-05-12 06:26:00,46.7,45.1,29.76,NW,311,11.0,14.0,94,0.00,,,0.00,Wunderground v.1.15,2013-05-12 10:26:00,
2013-05-12 06:31:00,46.7,45.1,29.76,NNW,327,12.0,13.0,94,0.00,,,0.00,Wunderground v.1.15,2013-05-12 10:31:00,
2013-05-12 06:36:00,46.7,45.1,29.76,NW,307,12.0,22.0,94,0.00,,,0.00,Wunderground v.1.15,2013-05-12 10:36:00,
2013-05-12 06:41:00,46.8,45.2,29.76,NW,315,13.0,13.0,94,0.00,,,0.00,Wunderground v.1.15,2013-05-12 10:41:00,
2013-05-12 06:46:00,46.8,45.2,29.76,WNW,289,15.0,20.0,94,0.00,,,0.00,Wunderground v.1.15,2013-05-12 10:46:00,
2013-05-12 06:52:00,46.9,45.3,29.76,NW,319,15.0,16.0,94,0.00,,,0.00,Wunderground v.1.15,2013-05-12 10:52:00,
2013-05-12 06:57:00,46.9,45.3,29.77,NW,309,13.0,16.0,94,0.00,,,0.00,Wunderground v.1.15,2013-05-12 10:57:00,
2013-05-12 07:03:00,47.0,45.4,29.77,NW,325,12.0,14.0,94,0.00,,,0.00,Wunderground v.1.15,2013-05-12 11:03:00,
2013-05-12 07:08:00,47.0,45.4,29.77,NW,324,10.0,14.0,94,0.00,,,0.00,Wunderground v.1.15,2013-05-12 11:08:00,
2013-05-12 07:13:00,47.1,45.5,29.78,NNW,332,8.0,8.0,94,0.00,,,0.00,Wunderground v.1.15,2013-05-12 11:13:00,
2013-05-12 07:18:00,47.3,45.7,29.78,NW,322,7.0,16.0,94,0.00,,,0.00,Wunderground v.1.15,2013-05-12 11:18:00,
2013-05-12 07:24:00,47.5,45.9,29.78,WNW,298,9.0,14.0,94,0.00,,,0.00,Wunderground v.1.15,2013-05-12 11:24:00,
2013-05-12 07:29:00,47.7,45.8,29.79,NW,315,11.0,16.0,93,0.00,,,0.00,Wunderground v.1.15,2013-05-12 11:29:00,
2013-05-12 07:34:00,48.0,46.4,29.79,NW,316,12.0,12.0,94,0.00,,,0.00,Wunderground v.1.15,2013-05-12 11:34:00,
2013-05-12 07:39:00,48.8,46.9,29.79,NW,318,12.0,14.0,93,0.00,,,0.00,Wunderground v.1.15,2013-05-12 11:39:00,
2013-05-12 07:45:00,49.7,47.5,29.79,WNW,300,13.0,20.0,92,0.00,,,0.00,Wunderground v.1.15,2013-05-12 11:45:00,
2013-05-12 07:50:00,50.4,47.9,29.79,NNW,330,12.0,12.0,91,0.00,,,0.00,Wunderground v.1.15,2013-05-12 11:50:00,
2013-05-12 07:55:00,51.0,48.2,29.79,WNW,303,11.0,22.0,90,0.00,,,0.00,Wunderground v.1.15,2013-05-12 11:55:00,
2013-05-12 08:00:00,51.6,48.5,29.80,WNW,303,12.0,15.0,89,0.00,,,0.00,Wunderground v.1.15,2013-05-12 12:00:00,
2013-05-12 08:05:00,51.9,48.5,29.80,NW,309,14.0,24.0,88,0.00,,,0.00,Wunderground v.1.15,2013-05-12 12:05:00,
2013-05-12 08:10:00,52.3,48.9,29.80,WNW,292,15.0,17.0,88,0.00,,,0.00,Wunderground v.1.15,2013-05-12 12:10:00,
2013-05-12 08:15:00,52.7,48.9,29.80,NNW,338,14.0,17.0,87,0.00,,,0.00,Wunderground v.1.15,2013-05-12 12:15:00,
2013-05-12 08:20:00,52.9,49.1,29.80,NW,310,15.0,15.0,87,0.00,,,0.01,Wunderground v.1.15,2013-05-12 12:20:00,
2013-05-12 08:25:00,53.1,49.3,29.80,NW,309,16.0,17.0,87,0.00,,,0.01,Wunderground v.1.15,2013-05-12 12:25:00,
2013-05-12 08:31:00,53.4,49.0,29.80,NW,313,17.0,26.0,85,0.00,,,0.01,Wunderground v.1.15,2013-05-12 12:31:00,
2013-05-12 08:36:00,53.6,49.2,29.80,NNW,331,17.0,27.0,85,0.00,,,0.01,Wunderground v.1.15,2013-05-12 12:36:00,
2013-05-12 08:41:00,54.0,49.3,29.80,NW,317,17.0,19.0,84,0.00,,,0.01,Wunderground v.1.15,2013-05-12 12:41:00,
2013-05-12 08:46:00,54.3,49.6,29.81,NW,326,17.0,22.0,84,0.00,,,0.01,Wunderground v.1.15,2013-05-12 12:46:00,
2013-05-12 08:51:00,54.6,49.5,29.81,NW,317,17.0,17.0,83,0.00,,,0.01,Wunderground v.1.15,2013-05-12 12:51:00,
2013-05-12 08:56:00,55.0,49.9,29.81,North,360,15.0,17.0,83,0.00,,,0.01,Wunderground v.1.15,2013-05-12 12:56:00,
2013-05-12 09:01:00,55.1,49.4,29.82,NNW,334,16.0,16.0,81,0.00,,,0.01,Wunderground v.1.15,2013-05-12 13:01:00,
2013-05-12 09:07:00,55.5,49.8,29.82,WNW,299,16.0,23.0,81,0.00,,,0.01,Wunderground v.1.15,2013-05-12 13:07:00,
2013-05-12 09:12:00,55.7,49.6,29.82,WNW,296,17.0,22.0,80,0.00,,,0.01,Wunderground v.1.15,2013-05-12 13:12:00,
2013-05-12 09:17:00,56.0,49.9,29.82,NW,310,17.0,22.0,80,0.00,,,0.01,Wunderground v.1.15,2013-05-12 13:17:00,
2013-05-12 09:23:00,56.1,49.3,29.82,NW,312,16.0,22.0,78,0.00,,,0.01,Wunderground v.1.15,2013-05-12 13:23:00,
2013-05-12 09:28:00,56.3,49.9,29.82,NW,319,16.0,22.0,79,0.00,,,0.01,Wunderground v.1.15,2013-05-12 13:28:00,
2013-05-12 09:33:00,56.2,49.4,29.82,NNW,327,17.0,22.0,78,0.00,,,0.01,Wunderground v.1.15,2013-05-12 13:33:00,
2013-05-12 09:39:00,56.2,49.1,29.82,WNW,293,18.0,28.0,77,0.00,,,0.01,Wunderground v.1.15,2013-05-12 13:39:00,
2013-05-12 09:44:00,56.2,49.1,29.82,WNW,298,16.0,17.0,77,0.00,,,0.01,Wunderground v.1.15,2013-05-12 13:44:00,
2013-05-12 09:49:00,56.4,48.6,29.82,NW,311,16.0,28.0,75,0.00,,,0.01,Wunderground v.1.15,2013-05-12 13:49:00,
2013-05-12 09:54:00,56.6,49.5,29.82,NW,319,16.0,18.0,77,0.00,,,0.01,Wunderground v.1.15,2013-05-12 13:54:00,
2013-05-12 09:59:00,57.0,50.2,29.82,NW,312,15.0,18.0,78,0.00,,,0.01,Wunderground v.1.15,2013-05-12 13:59:00,
2013-05-12 10:05:00,57.2,49.3,29.82,NW,311,17.0,25.0,75,0.00,,,0.01,Wunderground v.1.15,2013-05-12 14:05:00,
2013-05-12 10:10:00,57.3,48.7,29.82,NW,315,19.0,19.0,73,0.00,,,0.01,Wunderground v.1.15,2013-05-12 14:10:00,
2013-05-12 10:16:00,57.4,47.3,29.81,NW,311,22.0,40.0,69,0.00,,,0.01,Wunderground v.1.15,2013-05-12 14:16:00,
2013-05-12 10:21:00,57.6,47.5,29.81,WSW,257,20.0,23.0,69,0.00,,,0.01,Wunderground v.1.15,2013-05-12 14:21:00,
2013-05-12 10:26:00,57.6,47.9,29.81,NW,315,16.0,26.0,70,0.00,,,0.01,Wunderground v.1.15,2013-05-12 14:26:00,
2013-05-12 10:31:00,58.3,48.9,29.81,NNW,329,14.0,14.0,71,0.00,,,0.01,Wunderground v.1.15,2013-05-12 14:31:00,
2013-05-12 10:36:00,59.1,48.5,29.81,NNW,331,12.0,24.0,68,0.00,,,0.01,Wunderground v.1.15,2013-05-12 14:36:00,
2013-05-12 10:41:00,59.4,47.2,29.82,WNW,298,15.0,29.0,64,0.00,,,0.01,Wunderground v.1.15,2013-05-12 14:41:00,
2013-05-12 10:47:00,59.4,48.0,29.82,NW,322,17.0,29.0,66,0.00,,,0.01,Wunderground v.1.15,2013-05-12 14:47:00,
2013-05-12 10:52:00,60.3,48.1,29.82,WNW,291,14.0,15.0,64,0.00,,,0.01,Wunderground v.1.15,2013-05-12 14:52:00,
2013-05-12 10:57:00,60.9,48.6,29.82,NNW,331,12.0,17.0,64,0.00,,,0.01,Wunderground v.1.15,2013-05-12 14:57:00,
2013-05-12 11:02:00,61.4,47.4,29.82,NNW,348,13.0,20.0,60,0.00,,,0.01,Wunderground v.1.15,2013-05-12 15:02:00,
2013-05-12 11:07:00,61.4,44.1,29.82,NW,326,13.0,22.0,53,0.00,,,0.01,Wunderground v.1.15,2013-05-12 15:07:00,
2013-05-12 11:12:00,61.4,45.6,29.82,NW,313,15.0,25.0,56,0.00,,,0.01,Wunderground v.1.15,2013-05-12 15:12:00,
2013-05-12 11:17:00,61.6,44.8,29.82,WNW,294,17.0,25.0,54,0.00,,,0.01,Wunderground v.1.15,2013-05-12 15:17:00,
2013-05-12 11:23:00,61.8,44.0,29.82,WNW,296,16.0,17.0,52,0.00,,,0.01,Wunderground v.1.15,2013-05-12 15:23:00,
2013-05-12 11:28:00,61.9,43.6,29.82,West,278,14.0,17.0,51,0.00,,,0.01,Wunderground v.1.15,2013-05-12 15:28:00,
2013-05-12 11:34:00,61.8,41.9,29.82,WNW,297,13.0,24.0,48,0.00,,,0.01,Wunderground v.1.15,2013-05-12 15:34:00,
2013-05-12 11:39:00,62.1,41.1,29.82,WNW,298,17.0,24.0,46,0.00,,,0.01,Wunderground v.1.15,2013-05-12 15:39:00,
2013-05-12 11:45:00,62.3,42.3,29.82,NW,310,17.0,24.0,48,0.00,,,0.01,Wunderground v.1.15,2013-05-12 15:45:00,
2013-05-12 11:50:00,62.3,42.9,29.82,NW,318,15.0,15.0,49,0.00,,,0.01,Wunderground v.1.15,2013-05-12 15:50:00,
2013-05-12 11:55:00,62.3,41.8,29.82,NNW,339,15.0,37.0,47,0.00,,,0.01,Wunderground v.1.15,2013-05-12 15:55:00,
2013-05-12 12:00:00,61.9,42.5,29.83,NW,315,18.0,20.0,49,0.00,,,0.01,Wunderground v.1.15,2013-05-12 16:00:00,
2013-05-12 12:05:00,62.0,43.7,29.83,NW,324,18.0,26.0,51,0.00,,,0.01,Wunderground v.1.15,2013-05-12 16:05:00,
2013-05-12 12:10:00,62.4,44.5,29.83,NW,309,16.0,16.0,52,0.00,,,0.01,Wunderground v.1.15,2013-05-12 16:10:00,
2013-05-12 12:16:00,63.0,43.5,29.82,NW,323,13.0,20.0,49,0.00,,,0.01,Wunderground v.1.15,2013-05-12 16:16:00,
2013-05-12 12:22:00,63.4,41.7,29.82,NW,323,14.0,26.0,45,0.00,,,0.01,Wunderground v.1.15,2013-05-12 16:22:00,
2013-05-12 12:27:00,62.9,42.9,29.82,NW,313,17.0,26.0,48,0.00,,,0.01,Wunderground v.1.15,2013-05-12 16:27:00,
2013-05-12 12:33:00,62.5,43.1,29.82,NW,307,15.0,19.0,49,0.00,,,0.01,Wunderground v.1.15,2013-05-12 16:33:00,
2013-05-12 12:38:00,62.8,40.5,29.82,NW,308,13.0,21.0,44,0.00,,,0.01,Wunderground v.1.15,2013-05-12 16:38:00,
2013-05-12 12:43:00,63.1,39.6,29.82,NW,307,15.0,28.0,42,0.00,,,0.01,Wunderground v.1.15,2013-05-12 16:43:00,
2013-05-12 12:49:00,62.9,37.5,29.82,NW,313,18.0,30.0,39,0.00,,,0.01,Wunderground v.1.15,2013-05-12 16:49:00,
2013-05-12 12:54:00,62.5,37.2,29.82,NNW,340,19.0,24.0,39,0.00,,,0.01,Wunderground v.1.15,2013-05-12 16:54:00,
2013-05-12 12:59:00,62.5,39.1,29.82,NNW,346,15.0,33.0,42,0.00,,,0.01,Wunderground v.1.15,2013-05-12 16:59:00,
2013-05-12 13:05:00,62.3,40.1,29.82,NW,317,15.0,33.0,44,0.00,,,0.01,Wunderground v.1.15,2013-05-12 17:05:00,
2013-05-12 13:10:00,62.8,41.7,29.82,NW,316,15.0,17.0,46,0.00,,,0.01,Wunderground v.1.15,2013-05-12 17:10:00,
2013-05-12 13:15:00,62.7,39.9,29.82,NNW,331,15.0,34.0,43,0.00,,,0.01,Wunderground v.1.15,2013-05-12 17:15:00,
2013-05-12 13:20:00,62.9,38.2,29.82,NNW,330,16.0,20.0,40,0.00,,,0.01,Wunderground v.1.15,2013-05-12 17:20:00,
2013-05-12 13:26:00,63.0,38.9,29.82,NW,312,17.0,24.0,41,0.00,,,0.01,Wunderground v.1.15,2013-05-12 17:26:00,
2013-05-12 13:31:00,63.1,39.6,29.82,West,279,16.0,20.0,42,0.00,,,0.01,Wunderground v.1.15,2013-05-12 17:31:00,
2013-05-12 13:36:00,63.6,38.8,29.82,NW,319,16.0,21.0,40,0.00,,,0.01,Wunderground v.1.15,2013-05-12 17:36:00,
2013-05-12 13:41:00,63.4,40.5,29.82,North,355,18.0,19.0,43,0.00,,,0.01,Wunderground v.1.15,2013-05-12 17:41:00,
2013-05-12 13:46:00,63.5,39.4,29.82,NNW,341,17.0,20.0,41,0.00,,,0.01,Wunderground v.1.15,2013-05-12 17:46:00,
2013-05-12 13:51:00,62.7,38.0,29.82,WNW,302,17.0,22.0,40,0.00,,,0.01,Wunderground v.1.15,2013-05-12 17:51:00,
2013-05-12 13:56:00,63.2,39.1,29.82,NNW,340,17.0,26.0,41,0.00,,,0.01,Wunderground v.1.15,2013-05-12 17:56:00,
2013-05-12 14:01:00,63.6,37.5,29.82,NNW,345,16.0,18.0,38,0.00,,,0.01,Wunderground v.1.15,2013-05-12 18:01:00,
2013-05-12 14:07:00,63.3,35.9,29.82,North,351,17.0,31.0,36,0.00,,,0.01,Wunderground v.1.15,2013-05-12 18:07:00,
2013-05-12 14:12:00,63.6,33.9,29.82,NNW,337,17.0,22.0,33,0.00,,,0.01,Wunderground v.1.15,2013-05-12 18:12:00,
2013-05-12 14:18:00,63.7,39.5,29.82,NW,315,18.0,27.0,41,0.00,,,0.01,Wunderground v.1.15,2013-05-12 18:18:00,
2013-05-12 14:23:00,63.7,38.9,29.82,NW,325,17.0,29.0,40,0.00,,,0.01,Wunderground v.1.15,2013-05-12 18:23:00,
2013-05-12 14:28:00,63.6,38.8,29.81,NNW,329,17.0,32.0,40,0.00,,,0.01,Wunderground v.1.15,2013-05-12 18:28:00,
2013-05-12 14:33:00,63.2,37.8,29.81,NW,323,17.0,18.0,39,0.00,,,0.01,Wunderground v.1.15,2013-05-12 18:33:00,
2013-05-12 14:38:00,63.2,33.6,29.81,NNW,333,17.0,26.0,33,0.00,,,0.01,Wunderground v.1.15,2013-05-12 18:38:00,
2013-05-12 14:43:00,63.2,37.8,29.81,NW,324,18.0,27.0,39,0.00,,,0.01,Wunderground v.1.15,2013-05-12 18:43:00,
2013-05-12 14:48:00,63.2,39.7,29.81,NW,313,15.0,27.0,42,0.00,,,0.01,Wunderground v.1.15,2013-05-12 18:48:00,
2013-05-12 14:54:00,63.4,39.3,29.81,WNW,298,15.0,17.0,41,0.00,,,0.01,Wunderground v.1.15,2013-05-12 18:54:00,
2013-05-12 14:59:00,63.6,37.5,29.81,WNW,302,18.0,25.0,38,0.00,,,0.01,Wunderground v.1.15,2013-05-12 18:59:00,
2013-05-12 15:04:00,63.0,36.3,29.81,North,355,18.0,23.0,37,0.00,,,0.01,Wunderground v.1.15,2013-05-12 19:04:00,
2013-05-12 15:09:00,63.4,35.2,29.81,NW,304,15.0,23.0,35,0.00,,,0.01,Wunderground v.1.15,2013-05-12 19:09:00,
2013-05-12 15:15:00,63.4,37.3,29.81,NW,309,14.0,22.0,38,0.00,,,0.01,Wunderground v.1.15,2013-05-12 19:15:00,
2013-05-12 15:20:00,63.2,37.8,29.81,NW,309,17.0,17.0,39,0.00,,,0.01,Wunderground v.1.15,2013-05-12 19:20:00,
2013-05-12 15:25:00,63.0,37.0,29.81,WNW,286,19.0,24.0,38,0.00,,,0.01,Wunderground v.1.15,2013-05-12 19:25:00,
2013-05-12 15:31:00,62.8,37.5,29.81,NW,313,15.0,17.0,39,0.00,,,0.01,Wunderground v.1.15,2013-05-12 19:31:00,
2013-05-12 15:36:00,63.0,38.3,29.81,NW,310,11.0,34.0,40,0.00,,,0.01,Wunderground v.1.15,2013-05-12 19:36:00,
2013-05-12 15:41:00,63.0,38.9,29.80,WNW,301,15.0,18.0,41,0.00,,,0.01,Wunderground v.1.15,2013-05-12 19:41:00,
2013-05-12 15:47:00,62.8,36.8,29.80,West,273,16.0,25.0,38,0.00,,,0.01,Wunderground v.1.15,2013-05-12 19:47:00,
2013-05-12 15:52:00,62.5,37.8,29.80,NW,306,18.0,24.0,40,0.00,,,0.01,Wunderground v.1.15,2013-05-12 19:52:00,
2013-05-12 15:57:00,62.0,35.4,29.79,WNW,294,21.0,36.0,37,0.00,,,0.01,Wunderground v.1.15,2013-05-12 19:57:00,
2013-05-12 16:02:00,61.7,37.1,29.79,NNW,331,21.0,22.0,40,0.00,,,0.01,Wunderground v.1.15,2013-05-12 20:02:00,
2013-05-12 16:08:00,61.8,35.9,29.79,NW,310,22.0,29.0,38,0.00,,,0.01,Wunderground v.1.15,2013-05-12 20:08:00,
2013-05-12 16:13:00,61.6,36.4,29.79,NNW,330,24.0,26.0,39,0.00,,,0.01,Wunderground v.1.15,2013-05-12 20:13:00,
2013-05-12 16:18:00,61.4,36.8,29.79,NNW,338,23.0,26.0,40,0.00,,,0.01,Wunderground v.1.15,2013-05-12 20:18:00,
2013-05-12 16:23:00,61.3,36.1,29.79,NW,304,21.0,36.0,39,0.00,,,0.01,Wunderground v.1.15,2013-05-12 20:23:00,
2013-05-12 16:28:00,60.9,34.4,29.80,NW,308,24.0,36.0,37,0.00,,,0.01,Wunderground v.1.15,2013-05-12 20:28:00,
2013-05-12 16:33:00,60.8,35.0,29.80,NW,315,24.0,26.0,38,0.00,,,0.01,Wunderground v.1.15,2013-05-12 20:33:00,
2013-05-12 16:39:00,60.9,35.1,29.80,NW,323,22.0,29.0,38,0.00,,,0.01,Wunderground v.1.15,2013-05-12 20:39:00,
2013-05-12 16:44:00,60.6,34.8,29.81,NNW,340,23.0,31.0,38,0.00,,,0.01,Wunderground v.1.15,2013-05-12 20:44:00,
2013-05-12 16:49:00,60.3,34.6,29.81,West,272,21.0,31.0,38,0.00,,,0.01,Wunderground v.1.15,2013-05-12 20:49:00,
2013-05-12 16:54:00,60.0,35.0,29.81,NW,317,20.0,28.0,39,0.00,,,0.01,Wunderground v.1.15,2013-05-12 20:54:00,
2013-05-12 16:59:00,59.7,34.7,29.80,NW,309,21.0,28.0,39,0.00,,,0.01,Wunderground v.1.15,2013-05-12 20:59:00,
2013-05-12 17:04:00,59.5,34.5,29.80,NW,309,20.0,28.0,39,0.00,,,0.01,Wunderground v.1.15,2013-05-12 21:04:00,
2013-05-12 17:09:00,59.3,33.7,29.80,NW,317,22.0,28.0,38,0.00,,,0.01,Wunderground v.1.15,2013-05-12 21:09:00,
2013-05-12 17:14:00,59.1,33.5,29.82,NNW,338,23.0,35.0,38,0.00,,,0.01,Wunderground v.1.15,2013-05-12 21:14:00,
2013-05-12 17:19:00,59.0,34.1,29.82,WNW,282,20.0,35.0,39,0.00,,,0.01,Wunderground v.1.15,2013-05-12 21:19:00,
2013-05-12 17:24:00,58.9,34.6,29.82,West,264,20.0,30.0,40,0.00,,,0.01,Wunderground v.1.15,2013-05-12 21:24:00,
2013-05-12 17:29:00,58.6,35.0,29.81,NW,310,20.0,30.0,41,0.00,,,0.01,Wunderground v.1.15,2013-05-12 21:29:00,
2013-05-12 17:35:00,58.4,33.5,29.81,NW,314,21.0,38.0,39,0.00,,,0.01,Wunderground v.1.15,2013-05-12 21:35:00,
2013-05-12 17:40:00,58.3,34.7,29.81,NW,313,22.0,30.0,41,0.00,,,0.01,Wunderground v.1.15,2013-05-12 21:40:00,
2013-05-12 17:45:00,58.2,35.2,29.83,NW,309,22.0,30.0,42,0.00,,,0.01,Wunderground v.1.15,2013-05-12 21:45:00,
2013-05-12 17:50:00,58.0,35.0,29.83,NW,315,22.0,26.0,42,0.00,,,0.01,Wunderground v.1.15,2013-05-12 21:50:00,
2013-05-12 17:55:00,58.0,33.8,29.83,WNW,295,22.0,30.0,40,0.00,,,0.01,Wunderground v.1.15,2013-05-12 21:55:00,
2013-05-12 18:00:00,57.7,34.1,29.83,NNW,334,21.0,23.0,41,0.00,,,0.01,Wunderground v.1.15,2013-05-12 22:00:00,
2013-05-12 18:05:00,57.5,34.0,29.83,WNW,302,17.0,24.0,41,0.00,,,0.01,Wunderground v.1.15,2013-05-12 22:05:00,
2013-05-12 18:10:00,57.3,33.8,29.83,NNW,328,18.0,18.0,41,0.00,,,0.01,Wunderground v.1.15,2013-05-12 22:10:00,
2013-05-12 18:15:00,57.2,34.3,29.84,WNW,299,17.0,24.0,42,0.00,,,0.01,Wunderground v.1.15,2013-05-12 22:15:00,
2013-05-12 18:21:00,57.0,34.1,29.84,NW,323,17.0,21.0,42,0.00,,,0.01,Wunderground v.1.15,2013-05-12 22:21:00,
2013-05-12 18:26:00,56.8,33.3,29.84,North,350,19.0,30.0,41,0.00,,,0.01,Wunderground v.1.15,2013-05-12 22:26:00,
2013-05-12 18:31:00,56.8,33.9,29.85,NNW,348,18.0,18.0,42,0.00,,,0.01,Wunderground v.1.15,2013-05-12 22:31:00,
2013-05-12 18:36:00,56.6,33.8,29.85,NNW,340,15.0,26.0,42,0.00,,,0.01,Wunderground v.1.15,2013-05-12 22:36:00,
2013-05-12 18:41:00,56.5,33.1,29.85,WSW,252,18.0,18.0,41,0.00,,,0.01,Wunderground v.1.15,2013-05-12 22:41:00,
2013-05-12 18:46:00,56.4,33.0,29.85,WNW,302,19.0,23.0,41,0.00,,,0.01,Wunderground v.1.15,2013-05-12 22:46:00,
2013-05-12 18:51:00,56.2,33.4,29.85,NW,305,18.0,18.0,42,0.00,,,0.01,Wunderground v.1.15,2013-05-12 22:51:00,
2013-05-12 18:56:00,56.0,33.2,29.85,NW,305,16.0,21.0,42,0.00,,,0.01,Wunderground v.1.15,2013-05-12 22:56:00,
2013-05-12 19:02:00,55.8,33.0,29.85,NW,315,15.0,16.0,42,0.00,,,0.01,Wunderground v.1.15,2013-05-12 23:02:00,
2013-05-12 19:07:00,55.6,32.8,29.85,WNW,300,15.0,25.0,42,0.00,,,0.01,Wunderground v.1.15,2013-05-12 23:07:00,
2013-05-12 19:12:00,55.4,33.3,29.85,West,281,14.0,18.0,43,0.00,,,0.01,Wunderground v.1.15,2013-05-12 23:12:00,
2013-05-12 19:17:00,55.3,33.2,29.85,NW,325,13.0,18.0,43,0.00,,,0.01,Wunderground v.1.15,2013-05-12 23:17:00,
2013-05-12 19:22:00,55.2,33.6,29.85,NW,324,12.0,14.0,44,0.00,,,0.01,Wunderground v.1.15,2013-05-12 23:22:00,
2013-05-12 19:28:00,55.0,33.5,29.86,NW,313,11.0,16.0,44,0.00,,,0.01,Wunderground v.1.15,2013-05-12 23:28:00,
2013-05-12 19:33:00,54.8,33.8,29.86,NW,322,11.0,15.0,45,0.00,,,0.01,Wunderground v.1.15,2013-05-12 23:33:00,
2013-05-12 19:38:00,54.6,33.1,29.86,NW,317,12.0,15.0,44,0.00,,,0.01,Wunderground v.1.15,2013-05-12 23:38:00,
2013-05-12 19:43:00,54.4,32.9,29.86,NW,305,12.0,16.0,44,0.00,,,0.01,Wunderground v.1.15,2013-05-12 23:43:00,
2013-05-12 19:48:00,54.3,32.8,29.86,WNW,300,10.0,16.0,44,0.00,,,0.01,Wunderground v.1.15,2013-05-12 23:48:00,
2013-05-12 19:53:00,54.2,32.7,29.86,WNW,300,8.0,12.0,44,0.00,,,0.01,Wunderground v.1.15,2013-05-12 23:53:00,
2013-05-12 19:59:00,53.9,32.5,29.87,NW,310,8.0,12.0,44,0.00,,,0.01,Wunderground v.1.15,2013-05-12 23:59:00,
2013-05-12 20:04:00,53.7,31.7,29.87,WNW,296,7.0,10.0,43,0.00,,,0.01,Wunderground v.1.15,2013-05-13 00:04:00,
2013-05-12 20:09:00,53.6,32.2,29.87,NW,309,7.0,12.0,44,0.00,,,0.01,Wunderground v.1.15,2013-05-13 00:09:00,
2013-05-12 20:15:00,53.4,32.0,29.88,SE,138,5.0,8.0,44,0.00,,,0.01,Wunderground v.1.15,2013-05-13 00:15:00,
2013-05-12 20:20:00,53.3,31.9,29.88,SE,136,3.0,3.0,44,0.00,,,0.01,Wunderground v.1.15,2013-05-13 00:20:00,
2013-05-12 20:26:00,52.9,32.1,29.88,SE,134,1.0,6.0,45,0.00,,,0.01,Wunderground v.1.15,2013-05-13 00:26:00,
2013-05-12 20:31:00,52.5,31.8,29.88,South,173,1.0,12.0,45,0.00,,,0.01,Wunderground v.1.15,2013-05-13 00:31:00,
2013-05-12 20:36:00,52.4,31.7,29.88,WNW,300,1.0,12.0,45,0.00,,,0.01,Wunderground v.1.15,2013-05-13 00:36:00,
2013-05-12 20:41:00,52.1,30.3,29.88,WNW,297,1.0,6.0,43,0.00,,,0.01,Wunderground v.1.15,2013-05-13 00:41:00,
2013-05-12 20:46:00,51.9,30.1,29.88,NNW,333,1.0,6.0,43,0.00,,,0.01,Wunderground v.1.15,2013-05-13 00:46:00,
2013-05-12 20:51:00,51.6,29.2,29.88,WNW,294,1.0,6.0,42,0.00,,,0.01,Wunderground v.1.15,2013-05-13 00:51:00,
2013-05-12 20:56:00,51.5,30.8,29.88,WNW,298,2.0,6.0,45,0.00,,,0.01,Wunderground v.1.15,2013-05-13 00:56:00,
2013-05-12 21:01:00,51.1,31.0,29.88,NNE,21,1.0,6.0,46,0.00,,,0.01,Wunderground v.1.15,2013-05-13 01:01:00,
2013-05-12 21:06:00,50.6,29.5,29.88,NNE,21,0.0,6.0,44,0.00,,,0.01,Wunderground v.1.15,2013-05-13 01:06:00,
2013-05-12 21:12:00,50.2,29.1,29.89,NNE,21,0.0,6.0,44,0.00,,,0.01,Wunderground v.1.15,2013-05-13 01:12:00,
2013-05-12 21:17:00,50.0,28.9,29.89,SSE,157,0.0,6.0,44,0.00,,,0.01,Wunderground v.1.15,2013-05-13 01:17:00,
2013-05-12 21:22:00,49.9,28.8,29.89,SE,139,1.0,6.0,44,0.00,,,0.01,Wunderground v.1.15,2013-05-13 01:22:00,
2013-05-12 21:28:00,49.9,28.3,29.90,SSE,151,1.0,6.0,43,0.00,,,0.01,Wunderground v.1.15,2013-05-13 01:28:00,
2013-05-12 21:33:00,49.8,28.2,29.90,NNW,346,1.0,6.0,43,0.00,,,0.01,Wunderground v.1.15,2013-05-13 01:33:00,
2013-05-12 21:38:00,49.8,28.2,29.90,NNW,343,1.0,6.0,43,0.00,,,0.01,Wunderground v.1.15,2013-05-13 01:38:00,
2013-05-12 21:43:00,49.7,28.6,29.90,NNW,342,2.0,9.0,44,0.00,,,0.01,Wunderground v.1.15,2013-05-13 01:43:00,
2013-05-12 21:49:00,49.4,27.8,29.90,NW,325,3.0,9.0,43,0.00,,,0.01,Wunderground v.1.15,2013-05-13 01:49:00,
2013-05-12 21:54:00,49.4,28.9,29.90,NW,325,2.0,6.0,45,0.00,,,0.01,Wunderground v.1.15,2013-05-13 01:54:00,
2013-05-12 21:59:00,49.4,28.9,29.90,NNW,329,2.0,12.0,45,0.00,,,0.01,Wunderground v.1.15,2013-05-13 01:59:00,
2013-05-12 22:04:00,49.2,29.8,29.90,NNW,329,3.0,6.0,47,0.00,,,0.01,Wunderground v.1.15,2013-05-13 02:04:00,
2013-05-12 22:09:00,48.9,29.5,29.90,NNW,329,2.0,6.0,47,0.00,,,0.01,Wunderground v.1.15,2013-05-13 02:09:00,
2013-05-12 22:14:00,48.6,31.3,29.90,NNW,329,0.0,6.0,51,0.00,,,0.01,Wunderground v.1.15,2013-05-13 02:14:00,
2013-05-12 22:20:00,47.9,31.1,29.90,NNW,329,1.0,6.0,52,0.00,,,0.01,Wunderground v.1.15,2013-05-13 02:20:00,
2013-05-12 22:25:00,47.5,31.2,29.90,NNW,329,2.0,8.0,53,0.00,,,0.01,Wunderground v.1.15,2013-05-13 02:25:00,
2013-05-12 22:31:00,47.2,31.8,29.91,NNW,329,2.0,6.0,55,0.00,,,0.01,Wunderground v.1.15,2013-05-13 02:31:00,
2013-05-12 22:36:00,47.0,31.2,29.91,NNW,329,1.0,6.0,54,0.00,,,0.01,Wunderground v.1.15,2013-05-13 02:36:00,
2013-05-12 22:41:00,46.9,31.6,29.91,NNW,329,1.0,2.0,55,0.00,,,0.01,Wunderground v.1.15,2013-05-13 02:41:00,
2013-05-12 22:46:00,46.6,31.7,29.91,NNW,329,2.0,6.0,56,0.00,,,0.01,Wunderground v.1.15,2013-05-13 02:46:00,
2013-05-12 22:51:00,46.4,31.1,29.91,NNW,329,4.0,6.0,55,0.00,,,0.01,Wunderground v.1.15,2013-05-13 02:51:00,
2013-05-12 22:57:00,46.3,31.0,29.91,NNW,329,6.0,14.0,55,0.00,,,0.01,Wunderground v.1.15,2013-05-13 02:57:00,
2013-05-12 23:02:00,46.3,31.0,29.91,NW,324,8.0,11.0,55,0.00,,,0.01,Wunderground v.1.15,2013-05-13 03:02:00,
2013-05-12 23:07:00,46.4,31.1,29.91,NW,325,9.0,13.0,55,0.00,,,0.01,Wunderground v.1.15,2013-05-13 03:07:00,
2013-05-12 23:12:00,46.3,31.4,29.92,NNW,330,9.0,10.0,56,0.00,,,0.01,Wunderground v.1.15,2013-05-13 03:12:00,
2013-05-12 23:18:00,46.1,31.3,29.92,NW,321,8.0,10.0,56,0.00,,,0.01,Wunderground v.1.15,2013-05-13 03:18:00,
2013-05-12 23:23:00,46.0,31.2,29.92,NW,322,7.0,8.0,56,0.00,,,0.01,Wunderground v.1.15,2013-05-13 03:23:00,
2013-05-12 23:28:00,46.0,31.2,29.92,NW,313,7.0,8.0,56,0.00,,,0.01,Wunderground v.1.15,2013-05-13 03:28:00,
2013-05-12 23:34:00,46.0,30.7,29.92,NW,313,5.0,6.0,55,0.00,,,0.01,Wunderground v.1.15,2013-05-13 03:34:00,
2013-05-12 23:39:00,46.1,30.8,29.92,NW,313,3.0,11.0,55,0.00,,,0.01,Wunderground v.1.15,2013-05-13 03:39:00,
2013-05-12 23:44:00,46.3,31.0,29.92,NW,313,3.0,6.0,55,0.00,,,0.01,Wunderground v.1.15,2013-05-13 03:44:00,
2013-05-12 23:49:00,46.4,31.1,29.92,NW,311,4.0,8.0,55,0.00,,,0.01,Wunderground v.1.15,2013-05-13 03:49:00,
2013-05-12 23:54:00,46.3,31.0,29.92,NW,311,4.0,8.0,55,0.00,,,0.01,Wunderground v.1.15,2013-05-13 03:54:00,